Regional Weather Roundup
Issued by NWS

Home | Current Version | Previous Version | Text Only | Print | Product List | Glossary Off
Versions: 1 2 3 4 5 6 7 8 9 10 11 12 13 14 15 16 17 18 19 20 21 22 23 24 25 26 27 28 29 30 31 32 33 34 35 36 37 38 39 40 41 42 43 44 45 46 47 48 49 50

000
ASUS43 KLSX 312307
RWRMO

WEATHER SUMMARY FOR MISSOURI
NATIONAL WEATHER SERVICE SPRINGFIELD MO
600 PM CDT FRI JUL 31 2015

NOTE: "FAIR" INDICATES FEW OR NO CLOUDS BELOW 12,000 FEET WITH NO
       SIGNIFICANT WEATHER AND/OR OBSTRUCTIONS TO VISIBILITY.
       CURRENT SKY AND/OR WEATHER CONDITIONS ARE NOT AVAILABLE FOR
       CHILLICOTHE AND FARMINGTON.

MOZ001>031-035>038-043-044-053-054-010000-
...NORTHERN AND WESTERN MISSOURI...

CITY           SKY/WX    TMP DP  RH WIND       PRES   REMARKS
KANSAS CTY INT MOSUNNY   87  69  54 CALM      30.06F HX  91
KANSAS C DTWN  SUNNY     90  68  48 NW6       30.04F HX  94
LEE`S SUMMIT   SUNNY     91  60  35 W5        30.06F HX  90
ST JOSEPH      SUNNY     88  74  63 VRB5      30.04F HX  96
CHILLICOTHE      N/A     90  73  57 VRB3      30.04F HX  98
KIRKSVILLE     SUNNY     86  67  52 W3        30.05F

$$
MOZ066>068-077>081-088>096-101>105-010000-
...SOUTHWEST MISSOURI...

CITY           SKY/WX    TMP DP  RH WIND       PRES   REMARKS
SPRINGFIELD    SUNNY     89  54  30 W7        30.09F
JOPLIN         SUNNY     90  63  40 S54       30.07F HX  91

$$
MOZ032>034-039>042-045>050-055>058-069>072-010000-
...CENTRAL MISSOURI...

CITY           SKY/WX    TMP DP  RH WIND       PRES   REMARKS
COLUMBIA       SUNNY     88  64  44 W7        30.06F
JEFFERSON CITY SUNNY     90  59  35 NW7       30.03F
ROLLA          SUNNY     87  58  37 W10       30.07F
SEDALIA        SUNNY     90  58  33 W5        30.07F
WHITEMAN AFB   SUNNY     91  57  31 W5        30.04F
WARRENSBURG    SUNNY     90  59  35 W3        30.05F
OSAGE BEACH    SUNNY     90  63  40 W3        30.07F HX  90

$$
MOZ051-052-059>065-010000-
...EAST CENTRAL MISSOURI...

CITY           SKY/WX    TMP DP  RH WIND       PRES   REMARKS
ST LOUIS INTL  MOSUNNY   93  60  33 N8        30.03F HX  93
SPIRIT OF STL  SUNNY     91  62  37 W5        30.01F HX  91
ST CHARLES     SUNNY     91  60  35 NW6       30.01F HX  90

$$
MOZ072>076-082>087-097>100-106>115-010000-
...SOUTH CENTRAL AND SOUTHEAST MISSOURI...

CITY           SKY/WX    TMP DP  RH WIND       PRES   REMARKS
CAPE GIRARDEAU SUNNY     90  66  45 N6        30.02F HX  92
FARMINGTON     SUNNY     88  63  42 NW6       30.10F
POPLAR BLUFF   SUNNY     91  64  40 W6        30.02F HX  92
WEST PLAINS    SUNNY     88  59  37 W5        30.10F

$$



USA.gov is the U.S. government's official web portal to all federal, state and local government web resources and services.